Time,TemperatureF,DewpointF,PressureIn,WindDirection,WindDirectionDegrees,WindSpeedMPH,WindSpeedGustMPH,Humidity,HourlyPrecipIn,Conditions,Clouds,dailyrainin,SoftwareType,DateUTC
2013-08-03 00:02:00,57.0,55.0,-100.00,NNW,345,2.0,2.0,94,-99.99,,,-99.99,,2013-08-03 05:02:00,
2013-08-03 00:32:00,53.0,52.0,-100.00,NNW,345,2.0,4.0,95,-99.99,,,-99.99,,2013-08-03 05:32:00,
2013-08-03 00:42:00,53.0,52.0,-100.00,NNW,345,2.0,4.0,95,-99.99,,,-99.99,,2013-08-03 05:42:00,
2013-08-03 00:52:00,53.0,52.0,-100.00,NNW,345,2.0,4.0,95,-99.99,,,-99.99,,2013-08-03 05:52:00,
2013-08-03 01:02:00,53.0,52.0,-100.00,NNW,345,2.0,4.0,95,-99.99,,,-99.99,,2013-08-03 06:02:00,
2013-08-03 01:33:00,52.0,51.0,-100.00,West,280,1.0,1.0,96,-99.99,,,-99.99,,2013-08-03 06:33:00,
2013-08-03 01:42:00,52.0,51.0,-100.00,West,280,1.0,1.0,96,-99.99,,,-99.99,,2013-08-03 06:42:00,
2013-08-03 01:52:00,52.0,51.0,-100.00,West,280,1.0,1.0,96,-99.99,,,-99.99,,2013-08-03 06:52:00,
2013-08-03 02:02:00,52.0,51.0,-100.00,West,280,1.0,1.0,96,-99.99,,,-99.99,,2013-08-03 07:02:00,
2013-08-03 02:32:00,50.0,49.0,-100.00,WNW,285,0.0,0.0,96,-99.99,,,-99.99,,2013-08-03 07:32:00,
2013-08-03 02:43:00,50.0,49.0,-100.00,WNW,285,0.0,0.0,96,-99.99,,,-99.99,,2013-08-03 07:43:00,
2013-08-03 02:53:00,50.0,49.0,-100.00,WNW,285,0.0,0.0,96,-99.99,,,-99.99,,2013-08-03 07:53:00,
2013-08-03 03:02:00,50.0,49.0,-100.00,WNW,285,0.0,0.0,96,-99.99,,,-99.99,,2013-08-03 08:02:00,
2013-08-03 03:32:00,49.0,48.0,-100.00,NNW,330,0.0,0.0,97,-99.99,,,-99.99,,2013-08-03 08:32:00,
2013-08-03 03:43:00,49.0,48.0,-100.00,NNW,330,0.0,0.0,97,-99.99,,,-99.99,,2013-08-03 08:43:00,
2013-08-03 03:52:00,49.0,48.0,-100.00,NNW,330,0.0,0.0,97,-99.99,,,-99.99,,2013-08-03 08:52:00,
2013-08-03 04:02:00,49.0,48.0,-100.00,NNW,330,0.0,0.0,97,-99.99,,,-99.99,,2013-08-03 09:02:00,
2013-08-03 04:32:00,49.0,48.0,-100.00,NW,320,0.0,2.0,97,-99.99,,,-99.99,,2013-08-03 09:32:00,
2013-08-03 04:43:00,49.0,48.0,-100.00,NW,320,0.0,2.0,97,-99.99,,,-99.99,,2013-08-03 09:43:00,
2013-08-03 04:53:00,49.0,48.0,-100.00,NW,320,0.0,2.0,97,-99.99,,,-99.99,,2013-08-03 09:53:00,
2013-08-03 05:02:00,49.0,48.0,-100.00,NW,320,0.0,2.0,97,-99.99,,,-99.99,,2013-08-03 10:02:00,
2013-08-03 05:33:00,49.0,48.0,-100.00,SSE,160,1.0,1.0,98,-99.99,,,-99.99,,2013-08-03 10:33:00,
2013-08-03 05:42:00,49.0,48.0,-100.00,SSE,160,1.0,1.0,98,-99.99,,,-99.99,,2013-08-03 10:42:00,
2013-08-03 05:53:00,49.0,48.0,-100.00,SSE,160,1.0,1.0,98,-99.99,,,-99.99,,2013-08-03 10:53:00,
2013-08-03 06:02:00,49.0,48.0,-100.00,SSE,160,1.0,1.0,98,-99.99,,,-99.99,,2013-08-03 11:02:00,
2013-08-03 06:32:00,49.0,49.0,-100.00,WSW,250,0.0,2.0,98,-99.99,,,-99.99,,2013-08-03 11:32:00,
2013-08-03 06:43:00,49.0,49.0,-100.00,WSW,250,0.0,2.0,98,-99.99,,,-99.99,,2013-08-03 11:43:00,
2013-08-03 06:53:00,49.0,49.0,-100.00,WSW,250,0.0,2.0,98,-99.99,,,-99.99,,2013-08-03 11:53:00,
2013-08-03 07:03:00,49.0,49.0,-100.00,WSW,250,0.0,2.0,98,-99.99,,,-99.99,,2013-08-03 12:03:00,
2013-08-03 07:33:00,55.0,54.0,-100.00,North,0,4.0,8.0,98,-99.99,,,-99.99,,2013-08-03 12:33:00,
2013-08-03 07:43:00,55.0,54.0,-100.00,North,0,4.0,8.0,98,-99.99,,,-99.99,,2013-08-03 12:43:00,
2013-08-03 07:52:00,55.0,54.0,-100.00,North,0,4.0,8.0,98,-99.99,,,-99.99,,2013-08-03 12:52:00,
2013-08-03 08:02:00,55.0,54.0,-100.00,North,0,4.0,8.0,98,-99.99,,,-99.99,,2013-08-03 13:02:00,
2013-08-03 09:02:00,62.0,60.0,-100.00,North,0,4.0,7.0,94,-99.99,,,-99.99,,2013-08-03 14:02:00,
2013-08-03 09:33:00,69.0,48.0,-100.00,North,0,5.0,9.0,48,-99.99,,,-99.99,,2013-08-03 14:33:00,
2013-08-03 09:42:00,69.0,48.0,-100.00,North,0,5.0,9.0,48,-99.99,,,-99.99,,2013-08-03 14:42:00,
2013-08-03 09:52:00,69.0,48.0,-100.00,North,0,5.0,9.0,48,-99.99,,,-99.99,,2013-08-03 14:52:00,
2013-08-03 10:02:00,69.0,48.0,-100.00,North,0,5.0,9.0,48,-99.99,,,-99.99,,2013-08-03 15:02:00,
2013-08-03 10:32:00,72.0,45.0,-100.00,NNW,340,4.0,10.0,38,-99.99,,,-99.99,,2013-08-03 15:32:00,
2013-08-03 10:43:00,72.0,45.0,-100.00,NNW,340,4.0,10.0,38,-99.99,,,-99.99,,2013-08-03 15:43:00,
2013-08-03 10:53:00,72.0,45.0,-100.00,NNW,340,4.0,10.0,38,-99.99,,,-99.99,,2013-08-03 15:53:00,
2013-08-03 11:02:00,72.0,45.0,-100.00,NNW,340,4.0,10.0,38,-99.99,,,-99.99,,2013-08-03 16:02:00,
2013-08-03 11:10:00,73.0,43.0,-100.00,West,280,4.0,14.0,34,-99.99,,,-99.99,,2013-08-03 16:10:00,
2013-08-03 11:33:00,73.0,43.0,-100.00,West,280,4.0,14.0,34,-99.99,,,-99.99,,2013-08-03 16:33:00,
2013-08-03 11:43:00,73.0,43.0,-100.00,West,280,4.0,14.0,34,-99.99,,,-99.99,,2013-08-03 16:43:00,
2013-08-03 11:53:00,73.0,43.0,-100.00,West,280,4.0,14.0,34,-99.99,,,-99.99,,2013-08-03 16:53:00,
2013-08-03 12:03:00,73.0,43.0,-100.00,West,280,4.0,14.0,34,-99.99,,,-99.99,,2013-08-03 17:03:00,
2013-08-03 12:11:00,75.0,43.0,-100.00,NW,320,7.0,12.0,32,-99.99,,,-99.99,,2013-08-03 17:11:00,
2013-08-03 12:32:00,75.0,43.0,-100.00,NW,320,7.0,12.0,32,-99.99,,,-99.99,,2013-08-03 17:32:00,
2013-08-03 12:43:00,75.0,43.0,-100.00,NW,320,7.0,12.0,32,-99.99,,,-99.99,,2013-08-03 17:43:00,
2013-08-03 12:52:00,75.0,43.0,-100.00,NW,320,7.0,12.0,32,-99.99,,,-99.99,,2013-08-03 17:52:00,
2013-08-03 13:02:00,75.0,43.0,-100.00,NW,320,7.0,12.0,32,-99.99,,,-99.99,,2013-08-03 18:02:00,
2013-08-03 13:32:00,71.0,40.0,-100.00,NW,310,9.0,18.0,33,-99.99,,,-99.99,,2013-08-03 18:32:00,
2013-08-03 13:43:00,71.0,40.0,-100.00,NW,310,9.0,18.0,33,-99.99,,,-99.99,,2013-08-03 18:43:00,
2013-08-03 13:53:00,71.0,40.0,-100.00,NW,310,9.0,18.0,33,-99.99,,,-99.99,,2013-08-03 18:53:00,
2013-08-03 14:32:00,72.0,42.0,-100.00,NW,310,8.0,18.0,34,-99.99,,,-99.99,,2013-08-03 19:32:00,
2013-08-03 14:43:00,72.0,42.0,-100.00,NW,310,8.0,18.0,34,-99.99,,,-99.99,,2013-08-03 19:43:00,
2013-08-03 14:53:00,72.0,42.0,-100.00,NW,310,8.0,18.0,34,-99.99,,,-99.99,,2013-08-03 19:53:00,
2013-08-03 15:02:00,72.0,42.0,-100.00,NW,310,8.0,18.0,34,-99.99,,,-99.99,,2013-08-03 20:02:00,
2013-08-03 15:32:00,74.0,44.0,-100.00,NNW,335,5.0,14.0,35,-99.99,,,-99.99,,2013-08-03 20:32:00,
2013-08-03 15:42:00,74.0,44.0,-100.00,NNW,335,5.0,14.0,35,-99.99,,,-99.99,,2013-08-03 20:42:00,
2013-08-03 15:52:00,74.0,44.0,-100.00,NNW,335,5.0,14.0,35,-99.99,,,-99.99,,2013-08-03 20:52:00,
2013-08-03 16:02:00,74.0,44.0,-100.00,NNW,335,5.0,14.0,35,-99.99,,,-99.99,,2013-08-03 21:02:00,
2013-08-03 16:10:00,72.0,42.0,-100.00,NW,325,9.0,16.0,34,-99.99,,,-99.99,,2013-08-03 21:10:00,
2013-08-03 16:32:00,72.0,42.0,-100.00,NW,325,9.0,16.0,34,-99.99,,,-99.99,,2013-08-03 21:32:00,
2013-08-03 16:42:00,72.0,42.0,-100.00,NW,325,9.0,16.0,34,-99.99,,,-99.99,,2013-08-03 21:42:00,
2013-08-03 16:52:00,72.0,42.0,-100.00,NW,325,9.0,16.0,34,-99.99,,,-99.99,,2013-08-03 21:52:00,
2013-08-03 17:02:00,72.0,42.0,-100.00,NW,325,9.0,16.0,34,-99.99,,,-99.99,,2013-08-03 22:02:00,
2013-08-03 17:10:00,73.0,43.0,-100.00,NW,305,7.0,12.0,34,-99.99,,,-99.99,,2013-08-03 22:10:00,
2013-08-03 17:33:00,73.0,43.0,-100.00,NW,305,7.0,12.0,34,-99.99,,,-99.99,,2013-08-03 22:33:00,
2013-08-03 17:43:00,73.0,43.0,-100.00,NW,305,7.0,12.0,34,-99.99,,,-99.99,,2013-08-03 22:43:00,
2013-08-03 17:52:00,73.0,43.0,-100.00,NW,305,7.0,12.0,34,-99.99,,,-99.99,,2013-08-03 22:52:00,
2013-08-03 18:02:00,73.0,43.0,-100.00,NW,305,7.0,12.0,34,-99.99,,,-99.99,,2013-08-03 23:02:00,
2013-08-03 18:32:00,71.0,43.0,-100.00,NW,320,4.0,9.0,36,-99.99,,,-99.99,,2013-08-03 23:32:00,
2013-08-03 18:43:00,71.0,43.0,-100.00,NW,320,4.0,9.0,36,-99.99,,,-99.99,,2013-08-03 23:43:00,
2013-08-03 18:52:00,71.0,43.0,-100.00,NW,320,4.0,9.0,36,-99.99,,,-99.99,,2013-08-03 23:52:00,
2013-08-03 19:02:00,71.0,43.0,-100.00,NW,320,4.0,9.0,36,-99.99,,,-99.99,,2013-08-04 00:02:00,
2013-08-03 19:32:00,72.0,45.0,-100.00,NNW,335,3.0,7.0,37,-99.99,,,-99.99,,2013-08-04 00:32:00,
2013-08-03 19:42:00,72.0,45.0,-100.00,NNW,335,3.0,7.0,37,-99.99,,,-99.99,,2013-08-04 00:42:00,
2013-08-03 19:53:00,72.0,45.0,-100.00,NNW,335,3.0,7.0,37,-99.99,,,-99.99,,2013-08-04 00:53:00,
2013-08-03 20:02:00,72.0,45.0,-100.00,NNW,335,3.0,7.0,37,-99.99,,,-99.99,,2013-08-04 01:02:00,
2013-08-03 20:32:00,68.0,44.0,-100.00,NW,315,2.0,4.0,42,-99.99,,,-99.99,,2013-08-04 01:32:00,
2013-08-03 20:42:00,68.0,44.0,-100.00,NW,315,2.0,4.0,42,-99.99,,,-99.99,,2013-08-04 01:42:00,
2013-08-03 20:53:00,68.0,44.0,-100.00,NW,315,2.0,4.0,42,-99.99,,,-99.99,,2013-08-04 01:53:00,
2013-08-03 21:02:00,68.0,44.0,-100.00,NW,315,2.0,4.0,42,-99.99,,,-99.99,,2013-08-04 02:02:00,
2013-08-03 21:32:00,58.0,51.0,-100.00,WNW,285,0.0,1.0,75,-99.99,,,-99.99,,2013-08-04 02:32:00,
2013-08-03 21:42:00,58.0,51.0,-100.00,WNW,285,0.0,1.0,75,-99.99,,,-99.99,,2013-08-04 02:42:00,
2013-08-03 21:52:00,58.0,51.0,-100.00,WNW,285,0.0,1.0,75,-99.99,,,-99.99,,2013-08-04 02:52:00,
2013-08-03 22:02:00,58.0,51.0,-100.00,WNW,285,0.0,1.0,75,-99.99,,,-99.99,,2013-08-04 03:02:00,
2013-08-03 22:32:00,54.0,52.0,-100.00,NNW,345,1.0,1.0,91,-99.99,,,-99.99,,2013-08-04 03:32:00,
2013-08-03 22:42:00,54.0,52.0,-100.00,NNW,345,1.0,1.0,91,-99.99,,,-99.99,,2013-08-04 03:42:00,
2013-08-03 22:52:00,54.0,52.0,-100.00,NNW,345,1.0,1.0,91,-99.99,,,-99.99,,2013-08-04 03:52:00,
2013-08-03 23:03:00,54.0,52.0,-100.00,NNW,345,1.0,1.0,91,-99.99,,,-99.99,,2013-08-04 04:03:00,
2013-08-03 23:32:00,54.0,52.0,-100.00,North,0,4.0,5.0,94,-99.99,,,-99.99,,2013-08-04 04:32:00,
2013-08-03 23:42:00,54.0,52.0,-100.00,North,0,4.0,5.0,94,-99.99,,,-99.99,,2013-08-04 04:42:00,
2013-08-03 23:52:00,54.0,52.0,-100.00,North,0,4.0,5.0,94,-99.99,,,-99.99,,2013-08-04 04:52:00,